TimeEDT,TemperatureF,Dew PointF,Humidity,Sea Level PressureIn,VisibilityMPH,Wind Direction,Wind SpeedMPH,Gust SpeedMPH,PrecipitationIn,Events,Conditions,WindDirDegrees,DateUTC
12:15 AM,73.4,71.6,94,30.05,10.0,Calm,Calm,-,0.00,,Partly Cloudy,0,2013-06-20 04:15:00
12:35 AM,73.4,71.6,94,30.05,10.0,Calm,Calm,-,0.00,,Clear,0,2013-06-20 04:35:00
12:55 AM,73.4,71.6,94,30.05,10.0,Calm,Calm,-,0.00,,Mostly Cloudy,0,2013-06-20 04:55:00
1:15 AM,73.4,73.4,100,30.06,9.0,Calm,Calm,-,0.00,,Mostly Cloudy,0,2013-06-20 05:15:00
1:35 AM,73.4,71.6,94,30.05,8.0,Calm,Calm,-,0.00,,Mostly Cloudy,0,2013-06-20 05:35:00
1:55 AM,73.4,71.6,94,30.05,8.0,Calm,Calm,-,0.00,,Mostly Cloudy,0,2013-06-20 05:55:00
2:15 AM,73.4,71.6,94,30.05,9.0,Calm,Calm,-,0.00,,Mostly Cloudy,0,2013-06-20 06:15:00
2:35 AM,73.4,73.4,100,30.04,8.0,North,3.5,-,0.00,,Mostly Cloudy,360,2013-06-20 06:35:00
2:55 AM,73.4,73.4,100,30.04,10.0,Calm,Calm,-,0.00,,Overcast,0,2013-06-20 06:55:00
3:15 AM,73.4,73.4,100,30.04,10.0,Calm,Calm,-,0.00,,Mostly Cloudy,0,2013-06-20 07:15:00
3:35 AM,73.4,71.6,94,30.03,10.0,Calm,Calm,-,0.00,,Overcast,0,2013-06-20 07:35:00
3:55 AM,73.4,71.6,94,30.03,10.0,North,5.8,-,0.00,,Overcast,350,2013-06-20 07:55:00
4:15 AM,73.4,71.6,94,30.04,10.0,North,5.8,-,0.00,,Overcast,10,2013-06-20 08:15:00
4:35 AM,73.4,73.4,100,30.04,10.0,North,5.8,-,0.00,,Mostly Cloudy,10,2013-06-20 08:35:00
4:55 AM,73.4,71.6,94,30.05,9.0,North,5.8,-,0.00,,Mostly Cloudy,350,2013-06-20 08:55:00
5:15 AM,73.4,71.6,94,30.05,10.0,North,4.6,-,0.00,,Overcast,10,2013-06-20 09:15:00
5:35 AM,73.4,71.6,94,30.06,10.0,NNE,5.8,-,0.00,,Overcast,20,2013-06-20 09:35:00
5:55 AM,73.4,71.6,94,30.07,10.0,NNE,4.6,-,0.00,,Overcast,20,2013-06-20 09:55:00
6:15 AM,73.4,71.6,94,30.07,10.0,Calm,Calm,-,0.00,,Overcast,0,2013-06-20 10:15:00
6:35 AM,73.4,71.6,94,30.08,9.0,Calm,Calm,-,0.00,,Overcast,0,2013-06-20 10:35:00
6:55 AM,73.4,71.6,94,30.08,7.0,NNW,4.6,-,0.00,,Overcast,340,2013-06-20 10:55:00
7:15 AM,73.4,71.6,94,30.09,8.0,NNE,4.6,-,0.00,,Overcast,20,2013-06-20 11:15:00
7:35 AM,75.2,71.6,89,30.10,9.0,NNE,5.8,-,0.00,,Overcast,30,2013-06-20 11:35:00
7:55 AM,75.2,71.6,89,30.11,8.0,NNE,9.2,-,0.00,,Overcast,20,2013-06-20 11:55:00
8:15 AM,75.2,71.6,89,30.12,9.0,NE,11.5,-,0.00,,Overcast,40,2013-06-20 12:15:00
8:35 AM,75.2,71.6,89,30.12,9.0,NNE,9.2,-,0.00,,Overcast,30,2013-06-20 12:35:00
8:55 AM,75.2,71.6,89,30.12,9.0,NNE,10.4,-,0.00,,Overcast,30,2013-06-20 12:55:00
9:15 AM,75.2,69.8,83,30.13,10.0,NNE,10.4,18.4,0.00,,Overcast,30,2013-06-20 13:15:00
9:35 AM,75.2,69.8,83,30.13,10.0,NE,9.2,18.4,0.00,,Overcast,40,2013-06-20 13:35:00
9:55 AM,78.8,71.6,78,30.13,10.0,NE,12.7,18.4,0.00,,Mostly Cloudy,50,2013-06-20 13:55:00
10:15 AM,78.8,69.8,74,30.13,10.0,NE,9.2,-,0.00,,Mostly Cloudy,50,2013-06-20 14:15:00
10:35 AM,78.8,71.6,78,30.13,10.0,NNE,11.5,18.4,0.00,,Overcast,30,2013-06-20 14:35:00
10:55 AM,78.8,71.6,78,30.14,10.0,NE,9.2,-,0.00,,Overcast,50,2013-06-20 14:55:00
11:15 AM,78.8,69.8,74,30.15,10.0,NE,10.4,17.3,0.00,,Overcast,50,2013-06-20 15:15:00
11:35 AM,78.8,69.8,74,30.15,10.0,Calm,Calm,-,0.00,,Overcast,0,2013-06-20 15:35:00
11:55 AM,78.8,69.8,74,30.16,10.0,NE,8.1,-,0.00,,Overcast,40,2013-06-20 15:55:00
12:15 PM,78.8,69.8,74,30.16,10.0,NE,6.9,-,0.00,,Overcast,50,2013-06-20 16:15:00
12:35 PM,78.8,69.8,74,30.16,10.0,NE,10.4,16.1,0.00,,Mostly Cloudy,50,2013-06-20 16:35:00
12:55 PM,78.8,69.8,74,30.15,10.0,NE,11.5,-,0.00,,Overcast,50,2013-06-20 16:55:00
1:15 PM,78.8,69.8,74,30.15,10.0,NE,13.8,-,0.00,,Mostly Cloudy,50,2013-06-20 17:15:00
1:35 PM,80.6,69.8,70,30.14,10.0,NE,11.5,-,0.00,,Scattered Clouds,40,2013-06-20 17:35:00
1:55 PM,80.6,69.8,70,30.14,10.0,NE,15.0,18.4,0.00,,Scattered Clouds,40,2013-06-20 17:55:00
2:15 PM,80.6,69.8,70,30.15,10.0,ENE,8.1,16.1,0.00,,Mostly Cloudy,60,2013-06-20 18:15:00
2:35 PM,78.8,69.8,74,30.15,10.0,NE,15.0,-,0.00,,Mostly Cloudy,50,2013-06-20 18:35:00
2:55 PM,78.8,69.8,74,30.14,9.0,NE,12.7,-,0.00,,Overcast,50,2013-06-20 18:55:00
3:15 PM,80.6,69.8,70,30.14,10.0,NE,13.8,18.4,0.00,,Mostly Cloudy,40,2013-06-20 19:15:00
3:35 PM,80.6,69.8,70,30.13,10.0,NE,11.5,16.1,0.00,,Mostly Cloudy,50,2013-06-20 19:35:00
3:55 PM,78.8,69.8,74,30.13,10.0,NE,6.9,18.4,0.00,,Overcast,40,2013-06-20 19:55:00
4:15 PM,78.8,69.8,74,30.13,10.0,ENE,13.8,18.4,0.00,,Overcast,60,2013-06-20 20:15:00
4:35 PM,78.8,69.8,74,30.13,10.0,NNE,13.8,24.2,0.00,,Overcast,30,2013-06-20 20:35:00
4:55 PM,78.8,71.6,78,30.13,10.0,NE,10.4,-,0.00,,Mostly Cloudy,40,2013-06-20 20:55:00
5:15 PM,80.6,71.6,74,30.12,10.0,NNE,9.2,16.1,0.00,,Scattered Clouds,20,2013-06-20 21:15:00
5:35 PM,78.8,69.8,74,30.12,10.0,NE,16.1,21.9,0.00,,Scattered Clouds,50,2013-06-20 21:35:00
5:55 PM,78.8,69.8,74,30.11,10.0,NE,13.8,19.6,0.00,,Partly Cloudy,50,2013-06-20 21:55:00
6:15 PM,80.6,69.8,70,30.11,10.0,ENE,19.6,24.2,0.00,,Partly Cloudy,60,2013-06-20 22:15:00
6:35 PM,80.6,69.8,70,30.11,10.0,NE,13.8,25.3,0.00,,Partly Cloudy,50,2013-06-20 22:35:00
6:55 PM,78.8,68.0,69,30.12,7.0,NE,15.0,24.2,0.00,,Partly Cloudy,50,2013-06-20 22:55:00
7:15 PM,78.8,68.0,69,30.12,10.0,NE,18.4,25.3,0.00,,Clear,50,2013-06-20 23:15:00
7:35 PM,78.8,68.0,69,30.12,10.0,ENE,15.0,19.6,0.00,,Partly Cloudy,60,2013-06-20 23:35:00
7:55 PM,78.8,66.2,65,30.12,10.0,NE,15.0,20.7,0.00,,Partly Cloudy,50,2013-06-20 23:55:00
8:15 PM,77.0,66.2,69,30.12,10.0,ENE,9.2,21.9,0.00,,Clear,60,2013-06-21 00:15:00
8:35 PM,77.0,68.0,74,30.13,10.0,ENE,11.5,16.1,0.00,,Clear,60,2013-06-21 00:35:00
8:55 PM,77.0,68.0,74,30.13,10.0,ENE,12.7,-,0.00,,Clear,60,2013-06-21 00:55:00
9:15 PM,75.2,66.2,73,30.14,10.0,ENE,9.2,-,0.00,,Clear,70,2013-06-21 01:15:00
9:35 PM,75.2,66.2,73,30.15,10.0,ENE,11.5,-,0.00,,Clear,70,2013-06-21 01:35:00
9:55 PM,75.2,66.2,73,30.15,10.0,Calm,Calm,-,0.00,,Clear,0,2013-06-21 01:55:00
10:15 PM,75.2,66.2,73,30.16,10.0,ENE,8.1,-,0.00,,Clear,60,2013-06-21 02:15:00
10:35 PM,75.2,66.2,73,30.16,10.0,ENE,5.8,-,0.00,,Clear,60,2013-06-21 02:35:00
10:55 PM,75.2,69.8,83,30.16,10.0,ENE,9.2,-,0.00,,Clear,60,2013-06-21 02:55:00
11:15 PM,75.2,69.8,83,30.16,10.0,ENE,9.2,-,0.00,,Clear,60,2013-06-21 03:15:00
11:35 PM,75.2,69.8,83,30.16,10.0,ENE,11.5,-,0.00,,Clear,60,2013-06-21 03:35:00
11:55 PM,75.2,69.8,83,30.15,10.0,ENE,10.4,-,0.00,,Clear,60,2013-06-21 03:55:00